| time (UTC) | temp C | wind direction | speed KPH | gust KPH | rain 1hr cm | rain 24hr cm | rain mn cm | humidity % | barometer mb |
| 20260508024542 | 13 | 130 | 0.0 | 0.0 | 0.00 | 0.03 | 0.00 | 77 | 1009.3 |
| 20260508023027 | 13 | 130 | 0.0 | 0.0 | 0.00 | 0.03 | 0.00 | 79 | 1009.5 |
| 20260508021524 | 13 | 131 | 0.0 | 0.0 | 0.00 | 0.03 | 0.00 | 79 | 1009.5 |
| 20260508020023 | 13 | 131 | 0.0 | 0.0 | 0.00 | 0.03 | 0.00 | 79 | 1009.6 |
| 20260508014528 | 13 | 131 | 0.0 | 0.0 | 0.00 | 0.03 | 0.00 | 80 | 1009.7 |
| 20260508013020 | 13 | 131 | 0.0 | 0.0 | 0.00 | 0.03 | 0.00 | 80 | 1009.7 |
| 20260508011518 | 13 | 131 | 0.0 | 0.0 | 0.00 | 0.03 | 0.00 | 79 | 1009.8 |
| 20260508010026 | 13 | 131 | 0.0 | 0.0 | 0.00 | 0.03 | 0.00 | 79 | 1010.0 |
| 20260508004518 | 13 | 131 | 0.0 | 4.8 | 0.00 | 0.05 | 0.00 | 78 | 1010.1 |
| 20260508003015 | 13 | 151 | 0.0 | 0.0 | 0.00 | 0.05 | 0.00 | 78 | 1010.1 |
| 20260508001513 | 13 | 151 | 0.0 | 3.2 | 0.00 | 0.05 | 0.00 | 78 | 1010.2 |
| 20260508000011 | 14 | 173 | 0.0 | 4.8 | 0.00 | 0.05 | 0.00 | 79 | 1010.3 |
| 20260507234516 | 14 | 178 | 0.0 | 0.0 | 0.00 | 0.15 | 0.00 | 78 | 1010.5 |
| 20260507233023 | 14 | 153 | 0.0 | 4.8 | 0.00 | 0.15 | 0.00 | 78 | 1010.5 |
| 20260507231505 | 14 | 227 | 0.0 | 8.0 | 0.00 | 0.15 | 0.00 | 78 | 1010.8 |
| 20260507230004 | 14 | 202 | 0.0 | 4.8 | 0.00 | 0.15 | 0.00 | 78 | 1011.0 |
| 20260507224612 | 13 | 248 | 0.0 | 0.0 | 0.00 | 0.43 | 0.00 | 80 | 1011.4 |
| 20260507223057 | 13 | 252 | 0.0 | 0.0 | 0.00 | 0.43 | 0.00 | 84 | 1011.6 |
| 20260507221555 | 13 | 252 | 0.0 | 0.0 | 0.00 | 0.43 | 0.00 | 85 | 1011.8 |
| 20260507220053 | 13 | 252 | 0.0 | 0.0 | 0.00 | 0.43 | 0.00 | 86 | 1011.9 |
| 20260507214603 | 13 | 252 | 0.0 | 0.0 | 0.00 | 0.61 | 0.43 | 86 | 1011.9 |
| 20260507213052 | 13 | 252 | 0.0 | 0.0 | 0.00 | 0.61 | 0.43 | 89 | 1011.9 |
| 20260507211552 | 13 | 252 | 0.0 | 0.0 | 0.00 | 0.61 | 0.43 | 90 | 1012.1 |
| 20260507210058 | 13 | 252 | 0.0 | 0.0 | 0.00 | 0.61 | 0.43 | 91 | 1012.0 |
| 20260507204550 | 13 | 252 | 0.0 | 0.0 | 0.00 | 0.79 | 0.43 | 91 | 1012.0 |
| 20260507203104 | 13 | 252 | 0.0 | 0.0 | 0.00 | 0.79 | 0.43 | 90 | 1012.0 |
| 20260507201558 | 13 | 252 | 0.0 | 0.0 | 0.00 | 0.79 | 0.43 | 89 | 1012.0 |
| 20260507200104 | 13 | 252 | 0.0 | 0.0 | 0.00 | 0.79 | 0.43 | 89 | 1011.8 |
| 20260507194549 | 13 | 252 | 0.0 | 0.0 | 0.00 | 0.79 | 0.43 | 88 | 1011.8 |
| 20260507193050 | 13 | 252 | 0.0 | 0.0 | 0.00 | 0.79 | 0.43 | 85 | 1011.8 |
| 20260507191547 | 13 | 252 | 0.0 | 0.0 | 0.00 | 0.79 | 0.43 | 81 | 1011.9 |
| 20260507190052 | 14 | 252 | 0.0 | 0.0 | 0.00 | 0.79 | 0.43 | 81 | 1011.9 |
| 20260507184555 | 14 | 252 | 0.0 | 0.0 | 0.00 | 0.84 | 0.43 | 80 | 1011.9 |
| 20260507183049 | 15 | 252 | 0.0 | 0.0 | 0.00 | 0.84 | 0.43 | 79 | 1012.0 |
| 20260507181545 | 15 | 252 | 0.0 | 0.0 | 0.00 | 0.84 | 0.43 | 78 | 1011.9 |
| 20260507180048 | 15 | 252 | 0.0 | 0.0 | 0.00 | 0.84 | 0.43 | 78 | 1012.0 |
| 20260507174546 | 16 | 253 | 0.0 | 1.6 | 0.00 | 0.89 | 0.43 | 79 | 1011.9 |
| 20260507173043 | 16 | 272 | 0.0 | 9.7 | 0.00 | 0.89 | 0.43 | 78 | 1011.9 |
| 20260507171544 | 16 | 269 | 0.0 | 6.4 | 0.00 | 0.89 | 0.43 | 79 | 1012.0 |
| 20260507170043 | 17 | 288 | 0.0 | 6.4 | 0.00 | 0.89 | 0.43 | 78 | 1012.0 |
| 20260507164556 | 17 | 294 | 0.0 | 8.0 | 0.00 | 0.89 | 0.43 | 79 | 1011.8 |
| 20260507163041 | 18 | 261 | 0.0 | 4.8 | 0.00 | 0.89 | 0.43 | 79 | 1011.9 |
| 20260507161540 | 19 | 273 | 1.6 | 6.4 | 0.00 | 0.89 | 0.43 | 76 | 1012.0 |
| 20260507160041 | 20 | 256 | 0.0 | 4.8 | 0.00 | 0.89 | 0.43 | 74 | 1011.9 |
| 20260507154547 | 20 | 315 | 0.0 | 8.0 | 0.00 | 0.89 | 0.43 | 74 | 1011.8 |
| 20260507153038 | 21 | 278 | 1.6 | 9.7 | 0.00 | 0.89 | 0.43 | 71 | 1011.8 |
| 20260507151538 | 21 | 259 | 0.0 | 11.3 | 0.00 | 0.89 | 0.43 | 73 | 1012.0 |
| 20260507150036 | 21 | 254 | 0.0 | 8.0 | 0.00 | 0.89 | 0.43 | 70 | 1012.1 |
| 20260507144536 | 21 | 257 | 0.0 | 6.4 | 0.00 | 0.89 | 0.43 | 73 | 1012.2 |
| 20260507143036 | 20 | 267 | 0.0 | 6.4 | 0.00 | 0.89 | 0.43 | 68 | 1012.3 |
| 20260507141532 | 20 | 299 | 0.0 | 8.0 | 0.00 | 0.89 | 0.43 | 70 | 1012.4 |
| 20260507140032 | 20 | 104 | 0.0 | 9.7 | 0.00 | 0.89 | 0.43 | 73 | 1012.6 |
| 20260507134532 | 20 | 59 | 0.0 | 9.7 | 0.00 | 0.89 | 0.43 | 70 | 1013.0 |
| 20260507133028 | 20 | 290 | 0.0 | 11.3 | 0.00 | 0.89 | 0.43 | 76 | 1013.3 |
| 20260507131534 | 20 | 301 | 1.6 | 8.0 | 0.00 | 0.89 | 0.43 | 74 | 1013.5 |
| 20260507130025 | 20 | 281 | 0.0 | 8.0 | 0.00 | 0.89 | 0.43 | 74 | 1013.6 |
| 20260507124530 | 20 | 244 | 1.6 | 4.8 | 0.00 | 0.89 | 0.43 | 73 | 1013.6 |
| 20260507123024 | 20 | 205 | 0.0 | 4.8 | 0.00 | 0.89 | 0.43 | 79 | 1013.7 |
| 20260507121523 | 20 | 302 | 0.0 | 9.7 | 0.00 | 0.89 | 0.43 | 78 | 1013.8 |
| 20260507120027 | 20 | 325 | 0.0 | 1.6 | 0.00 | 0.89 | 0.43 | 77 | 1013.9 |
| 20260507114520 | 20 | 319 | 0.0 | 0.0 | 0.00 | 0.89 | 0.43 | 78 | 1013.8 |
| 20260507113019 | 18 | 126 | 0.0 | 0.0 | 0.00 | 0.89 | 0.43 | 79 | 1013.9 |
| 20260507111518 | 18 | 128 | 0.0 | 0.0 | 0.00 | 0.89 | 0.43 | 78 | 1014.1 |
| 20260507110018 | 18 | 124 | 0.0 | 0.0 | 0.00 | 0.89 | 0.43 | 69 | 1014.3 |
| 20260507104517 | 19 | 122 | 0.0 | 3.2 | 0.00 | 0.89 | 0.43 | 74 | 1014.2 |
| 20260507103017 | 19 | 119 | 0.0 | 3.2 | 0.00 | 0.89 | 0.43 | 73 | 1014.1 |
| 20260507101517 | 19 | 121 | 0.0 | 9.7 | 0.00 | 0.89 | 0.43 | 73 | 1014.2 |
| 20260507100011 | 18 | 126 | 0.0 | 6.4 | 0.00 | 0.89 | 0.43 | 74 | 1014.2 |
| 20260507094508 | 17 | 51 | 0.0 | 3.2 | 0.00 | 0.89 | 0.43 | 80 | 1014.3 |
| 20260507093006 | 17 | 61 | 0.0 | 1.6 | 0.00 | 0.89 | 0.43 | 82 | 1014.4 |
| 20260507091600 | 16 | 61 | 0.0 | 1.6 | 0.00 | 0.89 | 0.43 | 87 | 1014.3 |
| 20260507090101 | 15 | 61 | 0.0 | 0.0 | 0.00 | 0.89 | 0.43 | 91 | 1014.3 |
| 20260507084559 | 15 | 61 | 0.0 | 6.4 | 0.00 | 0.89 | 0.43 | 95 | 1014.3 |
| 20260507083051 | 14 | 59 | 0.0 | 3.2 | 0.00 | 0.89 | 0.43 | 97 | 1014.3 |
| 20260507081548 | 14 | 55 | 0.0 | 6.4 | 0.00 | 0.89 | 0.43 | 99 | 1014.3 |
| 20260507080100 | 13 | 132 | 0.0 | 3.2 | 0.00 | 0.89 | 0.43 | 100 | 1014.4 |
| 20260507074545 | 13 | 132 | 0.0 | 4.8 | 0.00 | 0.89 | 0.43 | 100 | 1014.4 |
| 20260507073046 | 13 | 132 | 0.0 | 0.0 | 0.00 | 0.89 | 0.43 | 100 | 1014.3 |
| 20260507071540 | 13 | 132 | 0.0 | 0.0 | 0.00 | 0.89 | 0.43 | 100 | 1014.4 |
| 20260507070039 | 12 | 132 | 0.0 | 0.0 | 0.00 | 0.89 | 0.43 | 100 | 1014.4 |
| 20260507064537 | 12 | 132 | 0.0 | 0.0 | 0.00 | 0.89 | 0.43 | 100 | 1014.3 |
| 20260507063035 | 12 | 132 | 0.0 | 0.0 | 0.00 | 0.89 | 0.43 | 100 | 1014.2 |
| 20260507061535 | 12 | 132 | 0.0 | 4.8 | 0.00 | 0.89 | 0.43 | 100 | 1014.1 |
| 20260507060039 | 12 | 132 | 0.0 | 3.2 | 0.00 | 0.89 | 0.43 | 100 | 1014.0 |
| 20260507054537 | 12 | 132 | 0.0 | 3.2 | 0.00 | 0.89 | 0.43 | 100 | 1013.7 |
| 20260507053033 | 12 | 130 | 0.0 | 0.0 | 0.00 | 0.89 | 0.43 | 100 | 1013.9 |
| 20260507051533 | 11 | 130 | 0.0 | 0.0 | 0.00 | 0.89 | 0.43 | 100 | 1013.7 |
| 20260507050033 | 11 | 130 | 0.0 | 0.0 | 0.00 | 0.89 | 0.43 | 100 | 1013.8 |
| 20260507044530 | 11 | 130 | 0.0 | 0.0 | 0.00 | 0.97 | 0.43 | 100 | 1013.6 |
| 20260507043029 | 11 | 130 | 0.0 | 0.0 | 0.00 | 0.97 | 0.43 | 100 | 1013.4 |
| 20260507041528 | 11 | 130 | 0.0 | 0.0 | 0.00 | 0.97 | 0.43 | 100 | 1013.2 |
| 20260507040029 | 11 | 130 | 0.0 | 0.0 | 0.00 | 0.97 | 0.43 | 100 | 1013.2 |
| 20260507034527 | 11 | 130 | 0.0 | 0.0 | 0.00 | 1.04 | 0.43 | 100 | 1013.1 |
| 20260507033030 | 11 | 130 | 0.0 | 0.0 | 0.03 | 1.04 | 0.43 | 100 | 1013.3 |
| 20260507031526 | 11 | 130 | 0.0 | 0.0 | 0.03 | 1.04 | 0.43 | 100 | 1013.2 |
| 20260507030026 | 11 | 130 | 0.0 | 0.0 | 0.03 | 1.04 | 0.43 | 100 | 1013.1 |